Starlink 4084

operational
NORAD ID: 52657 Int'l Des: 2022-053 Owner: SPXS Country: US Constellation: starlink
LEOCIRCULAR

About Starlink 4084

Description loading...

Live Position

Loading 3D Globe...

Upcoming Passes

Altitude History

Altitude vs Time

uPlot chart will show altitude changes over time

Two-Line Element Set

1 52657U 22053B 25257.33171052 -.00000219 00000-0 43304-5 0 9992
2 52657 53.2173 226.1407 0001579 88.1815 271.9358 15.08838273184781
Epoch: Sep 14, 2025 • Age: 23 hours

Current Status

Altitude 539.7 km
Velocity 7.60 km/s
Sub-Earth Point 19.45°N, 71.43°W
Launch Date May 18, 2022
Age 3.3 years
Type internet

Technical Details

Classification Payload
Mass 297.00 kg
Dry Mass 275.00 kg
Total Mass 297.00 kg
Length 0.20 m
Diameter 2.80 m
Span 9.00 m
Shape Box + pan
Manufacturer SPXS
Bus Type Starlink
Phase Status In Orbit
Owner/State SPXS/US

Large Constellations

Loading constellations...